Location: Dąbrówka
(52.2799°N, 15.8070°E)
Time: 23:10:17
(UTC+01:00)

ISS - Pass Details

Date: 28 January 2019
Orbit: 403 x 411 km, 51.6° (Epoch: 16 February)

Event Time Altitude Azimuth Distance (km) Brightness Sun altitude
Rises 17:31:44 0° 230° (SW) 2,326 1.5 -8.7°
Reaches altitude 10° 17:33:54 10° 221° (SW) 1,470 0.0 -9.0°
Maximum altitude 17:36:56 35° 154° (SSE) 686 -2.8 -9.4°
Enters shadow 17:39:29 13° 91° (E) 1,291 -1.9 -9.8°
